Retour au catalogue

STARLINK-35116

ActifCommunicationsVLEO
NORAD 66078·PAYLOAD·🇺🇸 United States

Lancé Oct 19, 2025 depuis Cape Canaveral Space Force Station

Loading…

Prochains Passages (prochaines 24 heures)

TLE

FraisSource: CelesTrak SupGP

Époque: Sep 14, 2026, 21:23 UTC

1 66078C 25235W   26257.89145833  .00011239  00000+0  33215-3 0  2576
2 66078  53.1567  83.9178 0001265  86.7267 312.5540 15.34376626    16

Suivez STARLINK-35116 en temps réel avec AllMySat

Download on the App Store